FW6664 Weather Reports


Display with metric or nautical units.
time (UTC)temp
F
wind
direction
speed
MPH
gust
MPH
rain 1hr
in
rain 24hr
in
rain mn
in
humidity
%
barometer
mb
20260507090342 57 292 0.0 0.0 0.00 0.00 0.00 33 1017.0
20260507090050 56 292 0.0 0.0 0.00 0.00 0.00 33 1017.0
20260507061853 58 292 2.0 0.0 0.00 0.00 0.00 33 1017.0
20260507061536 57 292 2.0 2.0 0.00 0.00 0.00 33 1017.0
20260507061327 58 292 2.0 0.0 0.00 0.00 0.00 33 1017.0
20260507061026 57 292 0.0 2.0 0.00 0.00 0.00 33 1017.0
20260507060906 58 292 2.0 0.0 0.00 0.00 0.00 33 1017.0
20260507060559 57 292 1.0 2.0 0.00 0.00 0.00 33 1017.0
20260507060359 58 292 3.0 0.0 0.00 0.00 0.00 33 1017.0
20260507060022 58 292 2.0 3.0 0.00 0.00 0.00 33 1017.0
20260507055905 58 292 2.0 0.0 0.00 0.00 0.00 33 1017.0
20260507055547 58 292 1.0 3.0 0.00 0.00 0.00 33 1017.0
20260507055340 58 292 3.0 0.0 0.00 0.00 0.00 33 1017.0
20260507055041 57 292 2.0 3.0 0.00 0.00 0.00 33 1017.0
20260507054835 58 292 4.0 0.0 0.00 0.00 0.00 33 1017.0
20260507054538 58 292 1.0 1.0 0.00 0.00 0.00 33 1017.0
20260507054332 58 292 2.0 0.0 0.00 0.00 0.00 33 1017.0
20260507054032 57 292 1.0 1.0 0.00 0.00 0.00 33 1017.0
20260507053852 58 292 2.0 0.0 0.00 0.00 0.00 33 1017.0
20260507053601 57 292 0.0 1.0 0.00 0.00 0.00 33 1017.0
20260507053504 58 292 0.0 1.0 0.00 0.00 0.00 33 1017.0
20260507053326 58 292 1.0 0.0 0.00 0.00 0.00 33 1017.0
20260507053053 58 293 0.0 1.0 0.00 0.00 0.00 33 1017.0
20260507052843 58 292 0.0 0.0 0.00 0.00 0.00 33 1017.0
20260507052547 58 292 0.0 0.0 0.00 0.00 0.00 33 1017.0
20260507052357 58 292 0.0 0.0 0.00 0.00 0.00 33 1017.0
20260507052019 58 292 0.0 1.0 0.00 0.00 0.00 33 1017.0
20260507051832 58 292 1.0 0.0 0.00 0.00 0.00 33 1017.0
20260507051513 58 292 0.0 1.0 0.00 0.00 0.00 33 1017.0
20260507051330 58 292 1.0 0.0 0.00 0.00 0.00 33 1017.0
20260507051007 58 292 0.0 0.0 0.00 0.00 0.00 33 1017.0
20260507050909 58 292 0.0 0.0 0.00 0.00 0.00 33 1017.0
20260507050532 58 292 0.0 0.0 0.00 0.00 0.00 33 1017.0
20260507050341 58 292 0.0 0.0 0.00 0.00 0.00 33 1017.0
20260507050030 58 292 0.0 0.0 0.00 0.00 0.00 33 1017.0
20260507045838 59 292 0.0 0.0 0.00 0.00 0.00 33 1017.0
20260507045526 58 292 0.0 0.0 0.00 0.00 0.00 33 1017.0
20260507045355 59 292 2.0 0.0 0.00 0.00 0.00 33 1017.0
20260507045054 58 292 0.0 0.0 0.00 0.00 0.00 33 1017.0
20260507044832 59 292 1.0 0.0 0.00 0.00 0.00 33 1017.0
20260507044604 58 292 0.0 0.0 0.00 0.00 0.00 33 1017.0
20260507044328 59 292 1.0 0.0 0.00 0.00 0.00 33 1017.0
20260507044042 58 292 0.0 0.0 0.00 0.00 0.00 33 1017.0
20260507043843 59 292 0.0 0.0 0.00 0.00 0.00 33 1017.0
20260507043535 59 292 0.0 1.0 0.00 0.00 0.00 33 1017.0
20260507043402 59 292 0.0 0.0 0.00 0.00 0.00 33 1017.0
20260507043019 59 292 0.0 1.0 0.00 0.00 0.00 33 1017.0
20260507042856 59 292 2.0 0.0 0.00 0.00 0.00 33 1017.0
20260507042539 59 292 0.0 1.0 0.00 0.00 0.00 33 1017.0
20260507042331 59 292 1.0 0.0 0.00 0.00 0.00 33 1017.0
20260507042037 59 292 1.0 1.0 0.00 0.00 0.00 33 1017.0
20260507041827 59 292 1.0 0.0 0.00 0.00 0.00 33 1017.0
20260507041526 59 292 1.0 4.0 0.00 0.00 0.00 33 1017.0
20260507041328 60 292 3.0 0.0 0.00 0.00 0.00 33 1017.0
20260507041022 59 292 1.0 4.0 0.00 0.00 0.00 33 1017.0
20260507040845 60 292 2.0 0.0 0.00 0.00 0.00 33 1017.0
20260507040559 59 293 2.0 5.0 0.00 0.00 0.00 33 1017.0
20260507040503 59 292 1.0 5.0 0.00 0.00 0.00 33 1017.0
20260507040329 60 293 3.0 0.0 0.00 0.00 0.00 33 1017.0
20260507040055 59 292 3.0 5.0 0.00 0.00 0.00 33 1017.0
20260507035848 60 293 6.0 0.0 0.00 0.00 0.00 33 1017.0
20260507035530 60 295 3.0 5.0 0.00 0.00 0.00 33 1017.0
20260507035325 60 292 5.0 0.0 0.00 0.00 0.00 33 1017.0
20260507035007 60 293 3.0 5.0 0.00 0.00 0.00 33 1017.0
20260507034902 60 297 4.0 0.0 0.00 0.00 0.00 33 1017.0
20260507034537 60 291 3.0 6.0 0.00 0.00 0.00 33 1017.0
20260507034340 60 291 4.0 0.0 0.00 0.00 0.00 33 1017.0
20260507034009 60 292 3.0 7.0 0.00 0.00 0.00 33 1017.0
20260507033836 61 298 4.0 0.0 0.00 0.00 0.00 33 1017.0
20260507033505 60 289 4.0 7.0 0.00 0.00 0.00 33 1017.0
20260507033332 61 285 6.0 0.0 0.00 0.00 0.00 33 1017.0
20260507033057 60 289 5.0 6.0 0.00 0.00 0.00 33 1017.0
20260507032829 61 287 8.0 0.0 0.00 0.00 0.00 33 1017.0
20260507032552 61 290 4.0 7.0 0.00 0.00 0.00 33 1017.0
20260507032325 61 292 7.0 0.0 0.00 0.00 0.00 33 1017.0
20260507032045 61 293 5.0 7.0 0.00 0.00 0.00 33 1017.0
20260507031842 61 301 7.0 0.0 0.00 0.00 0.00 33 1017.0
20260507031518 61 293 6.0 7.0 0.00 0.00 0.00 33 1017.0
20260507031337 61 293 5.0 0.0 0.00 0.00 0.00 33 1017.0
20260507031048 61 294 4.0 7.0 0.00 0.00 0.00 33 1017.0
20260507030833 62 297 4.0 0.0 0.00 0.00 0.00 33 1017.0
20260507030541 61 294 4.0 7.0 0.00 0.00 0.00 33 1017.0
20260507030331 62 292 5.0 0.0 0.00 0.00 0.00 33 1017.0
20260507030038 61 290 5.0 6.0 0.00 0.00 0.00 33 1017.0
20260507025826 62 289 7.0 0.0 0.00 0.00 0.00 33 1017.0
20260507025529 62 291 6.0 9.0 0.00 0.00 0.00 33 1017.0
20260507025405 62 288 4.0 0.0 0.00 0.00 0.00 33 1017.0
20260507025100 62 282 5.0 9.0 0.00 0.00 0.00 33 1017.0
20260507025004 62 290 5.0 9.0 0.00 0.00 0.00 33 1017.0
20260507024840 62 290 7.0 0.0 0.00 0.00 0.00 33 1017.0
20260507024556 62 288 7.0 9.0 0.00 0.00 0.00 33 1017.0
20260507024337 63 291 9.0 0.0 0.00 0.00 0.00 33 1017.0
20260507024048 62 289 6.0 8.0 0.00 0.00 0.00 33 1017.0
20260507023833 63 297 5.0 0.0 0.00 0.00 0.00 33 1017.0
20260507023542 63 300 4.0 7.0 0.00 0.00 0.00 33 1017.0
20260507023329 63 297 9.0 0.0 0.00 0.00 0.00 33 1017.0
20260507023038 63 290 5.0 6.0 0.00 0.00 0.00 33 1017.0
20260507022825 64 287 9.0 0.0 0.00 0.00 0.00 33 1017.0
20260507022532 63 299 5.0 7.0 0.00 0.00 0.00 33 1017.0
20260507022404 64 288 8.0 0.0 0.00 0.00 0.00 33 1017.0
20260507022004 64 290 6.0 7.0 0.00 0.00 0.00 33 1017.0
20260507021836 64 287 10.0 0.0 0.00 0.00 0.00 33 1017.0
20260507021554 64 296 5.0 8.0 0.00 0.00 0.00 33 1017.0
20260507021353 65 306 7.0 0.0 0.00 0.00 0.00 33 1017.0
20260507021030 65 295 6.0 8.0 0.00 0.00 0.00 33 1017.0
20260507020829 65 288 11.0 0.0 0.00 0.00 0.00 33 1017.0
20260507020522 65 268 7.0 11.0 0.00 0.00 0.00 33 1017.0
20260507020326 66 273 8.0 0.0 0.00 0.00 0.00 33 1017.0
20260507020009 65 290 9.0 11.0 0.00 0.00 0.00 33 1017.0
20260507015837 66 281 6.0 0.0 0.00 0.00 0.00 33 1017.0
20260507015600 66 295 4.0 7.0 0.00 0.00 0.00 33 1017.0
20260507015504 66 300 4.0 7.0 0.00 0.00 0.00 33 1017.0
20260507015337 66 289 7.0 0.0 0.00 0.00 0.00 33 1017.0
20260507015055 66 304 6.0 7.0 0.00 0.00 0.00 33 1017.0
20260507014834 67 287 8.0 0.0 0.00 0.00 0.00 33 1017.0
20260507014547 67 294 6.0 9.0 0.00 0.00 0.00 33 1017.0
20260507014329 67 294 7.0 0.0 0.00 0.00 0.00 33 1017.0
20260507014041 67 277 5.0 9.0 0.00 0.00 0.00 33 1017.0
20260507013846 68 286 4.0 0.0 0.00 0.00 0.00 33 1017.0
20260507013532 67 285 7.0 8.0 0.00 0.00 0.00 33 1017.0
20260507013401 68 269 7.0 0.0 0.00 0.00 0.00 33 1017.0
20260507013006 68 308 4.0 8.0 0.00 0.00 0.00 33 1017.0
20260507012836 68 296 4.0 0.0 0.00 0.00 0.00 33 1017.0
20260507012555 68 289 4.0 8.0 0.00 0.00 0.00 33 1017.0
20260507012331 68 289 3.0 0.0 0.00 0.00 0.00 33 1017.0
20260507012050 68 296 5.0 9.0 0.00 0.00 0.00 33 1017.0
20260507011829 69 285 5.0 0.0 0.00 0.00 0.00 33 1017.0
20260507011547 68 272 4.0 9.0 0.00 0.00 0.00 33 1017.0
20260507011405 69 281 3.0 0.0 0.00 0.00 0.00 33 1017.0
20260507011018 68 299 7.0 9.0 0.00 0.00 0.00 33 1017.0
20260507010902 69 296 9.0 0.0 0.00 0.00 0.00 33 1017.0
20260507010547 68 309 5.0 8.0 0.00 0.00 0.00 33 1017.0
20260507010336 69 297 10.0 0.0 0.00 0.00 0.00 33 1017.0
20260507010044 69 299 5.0 8.0 0.00 0.00 0.00 33 1017.0
20260507005833 69 271 6.0 0.0 0.00 0.00 0.00 33 1017.0
20260507005537 69 305 2.0 11.0 0.00 0.00 0.00 33 1017.0
20260507005352 69 292 5.0 0.0 0.00 0.00 0.00 33 1017.0
20260507005010 69 286 6.0 11.0 0.00 0.00 0.00 33 1017.0
20260507004826 69 280 7.0 0.0 0.00 0.00 0.00 33 1017.0
20260507004505 69 302 3.0 8.0 0.00 0.00 0.00 33 1017.0
20260507004343 70 294 5.0 0.0 0.00 0.00 0.00 33 1017.0
20260507004056 69 289 6.0 10.0 0.00 0.00 0.00 33 1017.0
20260507003839 70 276 6.0 0.0 0.00 0.00 0.00 33 1017.0
20260507003550 69 290 7.0 10.0 0.00 0.00 0.00 33 1017.0
20260507003336 70 290 4.0 0.0 0.00 0.00 0.00 33 1017.0
20260507003046 69 290 9.0 10.0 0.00 0.00 0.00 33 1017.0
20260506210338 71 285 10.0 0.0 0.00 0.00 0.00 33 1017.0
20260506210104 71 280 5.0 6.0 0.00 0.00 0.00 33 1017.0
20260506170329 63 345 6.0 0.0 0.00 0.00 0.00 33 1017.0
20260506155841 61 38 1.0 0.0 0.00 0.00 0.00 33 1017.0
20260506155559 61 38 1.0 2.0 0.00 0.00 0.00 33 1017.0
20260506155502 61 38 1.0 3.0 0.00 0.00 0.00 33 1017.0
20260506155330 61 38 3.0 0.0 0.00 0.00 0.00 33 1017.0
20260506155025 61 38 0.0 3.0 0.00 0.00 0.00 33 1017.0
20260506154842 61 38 1.0 0.0 0.00 0.00 0.00 33 1017.0
20260506154508 60 38 3.0 3.0 0.00 0.00 0.00 33 1017.0
20260506154329 61 42 1.0 0.0 0.00 0.00 0.00 33 1017.0
20260506154055 60 42 1.0 2.0 0.00 0.00 0.00 33 1017.0
20260506153838 61 42 4.0 0.0 0.00 0.00 0.00 33 1017.0
20260506153544 60 42 0.0 2.0 0.00 0.00 0.00 33 1017.0
20260506153347 60 42 0.0 0.0 0.00 0.00 0.00 33 1017.0
20260506153025 60 42 1.0 2.0 0.00 0.00 0.00 33 1017.0
20260506152834 60 42 0.0 0.0 0.00 0.00 0.00 33 1017.0
20260506152547 59 42 0.0 1.0 0.00 0.00 0.00 33 1017.0
20260506152326 60 42 0.0 0.0 0.00 0.00 0.00 33 1017.0
20260506152043 59 42 1.0 1.0 0.00 0.00 0.00 33 1017.0
20260506151839 59 42 2.0 0.0 0.00 0.00 0.00 33 1017.0
20260506151527 58 42 0.0 1.0 0.00 0.00 0.00 33 1017.0
20260506151328 58 42 1.0 0.0 0.00 0.00 0.00 33 1017.0
20260506151053 58 42 0.0 1.0 0.00 0.00 0.00 33 1017.0
20260506150841 58 42 1.0 0.0 0.00 0.00 0.00 33 1017.0
20260506150539 57 42 1.0 1.0 0.00 0.00 0.00 33 1017.0
20260506150327 57 42 3.0 0.0 0.00 0.00 0.00 33 1017.0
20260506150027 57 43 0.0 0.0 0.00 0.00 0.00 33 1017.0
20260506145841 57 43 1.0 0.0 0.00 0.00 0.00 33 1017.0
20260506145518 56 43 0.0 0.0 0.00 0.00 0.00 33 1017.0
20260506145332 57 43 0.0 0.0 0.00 0.00 0.00 33 1017.0
20260506145008 56 43 0.0 1.0 0.00 0.00 0.00 33 1017.0
20260506144841 56 43 1.0 0.0 0.00 0.00 0.00 33 1017.0
20260506144548 56 43 0.0 1.0 0.00 0.00 0.00 33 1017.0
20260506144353 56 43 1.0 0.0 0.00 0.00 0.00 33 1017.0
20260506144019 55 43 0.0 1.0 0.00 0.00 0.00 33 1017.0
20260506143844 55 43 0.0 0.0 0.00 0.00 0.00 33 1017.0
20260506143505 54 43 0.0 1.0 0.00 0.00 0.00 33 1017.0
20260506143333 55 43 0.0 0.0 0.00 0.00 0.00 33 1017.0
20260506143053 54 43 0.0 1.0 0.00 0.00 0.00 33 1017.0
20260506142845 54 43 0.0 0.0 0.00 0.00 0.00 33 1017.0
20260506142539 54 43 1.0 1.0 0.00 0.00 0.00 33 1017.0
20260506142331 54 43 2.0 0.0 0.00 0.00 0.00 33 1017.0
20260506142026 53 43 0.0 1.0 0.00 0.00 0.00 33 1017.0
20260506141846 53 43 2.0 0.0 0.00 0.00 0.00 33 1017.0
20260506141521 53 41 1.0 1.0 0.00 0.00 0.00 33 1017.0
20260506141350 53 41 2.0 0.0 0.00 0.00 0.00 33 1017.0
20260506141032 53 41 0.0 2.0 0.00 0.00 0.00 33 1017.0
20260506140842 53 41 1.0 0.0 0.00 0.00 0.00 33 1017.0
20260506140522 53 41 1.0 2.0 0.00 0.00 0.00 33 1017.0
20260506140349 53 41 3.0 0.0 0.00 0.00 0.00 33 1017.0
20260506140005 53 43 1.0 2.0 0.00 0.00 0.00 33 1017.0
20260506135836 53 42 3.0 0.0 0.00 0.00 0.00 33 1017.0
20260506135549 53 42 1.0 2.0 0.00 0.00 0.00 33 1017.0
20260506135329 53 42 5.0 0.0 0.00 0.00 0.00 33 1017.0
20260506135041 52 44 2.0 2.0 0.00 0.00 0.00 33 1017.0
20260506134839 52 43 3.0 0.0 0.00 0.00 0.00 33 1017.0
20260506134526 52 43 2.0 2.0 0.00 0.00 0.00 33 1017.0
20260506134348 52 43 2.0 0.0 0.00 0.00 0.00 33 1017.0
20260506134106 51 40 2.0 2.0 0.00 0.00 0.00 33 1017.0